Regional Weather Roundup
Issued by NWS Mt. Holly, NJ

Home | Current Version | Previous Version | Text Only | Print | Product List | Glossary On
Versions: 1 2 3 4 5 6 7 8 9 10 11 12 13 14 15 16 17 18 19 20 21 22 23 24 25 26 27 28 29 30 31 32 33 34 35 36 37 38 39 40 41 42 43 44 45 46 47 48 49
000
ASUS41 KPHI 101410
RWRPHI

REGIONAL WEATHER ROUNDUP
NATIONAL WEATHER SERVICE MOUNT HOLLY NJ
1000 AM EDT THU JUL 10 2014

NOTE:  "FAIR" INDICATES FEW OR NO CLOUDS BELOW 12,000 FEET WITH NO
SIGNIFICANT WEATHER AND/OR OBSTRUCTIONS TO VISIBILITY.

 * = STATION DOES NOT REPORT PRECIPITATION (E.G. RAIN, SNOW, ETC.)
        OR FOG.

NJZ015>026-101500-
SOUTHERN NEW JERSEY

CITY           SKY/WX    TMP DP  RH WIND       PRES   REMARKS
POMONA         TSTM      71  70  96 E12       30.09R FOG
RIO GRANDE*    CLOUDY    75  70  83 W3        30.09
MILLVILLE      CLOUDY    77  71  82 NE7       30.07R
WRIGHTSTOWN    CLOUDY    76  64  66 E8        30.08R
MOUNT HOLLY    CLOUDY    76  64  66 VRB6      30.09R
TRENTON        PTSUNNY   75  63  66 NE8       30.09R

$$
NJZ001>014-101500-
NORTHERN NEW JERSEY

CITY           SKY/WX    TMP DP  RH WIND       PRES   REMARKS
SUSSEX         PTSUNNY   72  64  76 NE5       30.12R
ANDOVER*         N/A     70  64  81 VRB3      30.13R
MORRISTOWN     PTSUNNY   75  66  73 NE6       30.11R
NEWARK         PTSUNNY   76  63  64 NE7       30.10R
TETERBORO      PTSUNNY   77  61  57 N8        30.09R
CALDWELL       PTSUNNY   73  64  73 E6        30.12R
SOMERVILLE     PTSUNNY   77  63  61 VRB3      30.09R
ALLAIRE*       CLOUDY    73  61  64 NE10G16   30.11R
TOMS RIVER*    CLOUDY    72  64  78 NE7       30.11R

$$
PAZ043-044-047-054-055-060>062-066>071-101500-
EASTERN PENNSYLVANIA

CITY           SKY/WX    TMP DP  RH WIND       PRES   REMARKS
PHILADELPHIA   CLOUDY    78  60  53 NE12      30.09R
NORTH PHILA    CLOUDY    78  62  57 NE9       30.11R
BLUE BELL      PTSUNNY   77  64  65 E7        30.09S
DOYLESTOWN     PTSUNNY   76  65  68 N7        30.10S
QUAKERTOWN*    PTSUNNY   75  63  64 NE5       30.11S
POTTSTOWN      PTSUNNY   75  63  66 NE7       30.11S
LANCASTER      PTSUNNY   74  64  71 NE8       30.10R
COATESVILLE    PTSUNNY   73  63  68 NE5       30.11R
READING        PTSUNNY   76  63  64 N7        30.09S
ALLENTOWN      PTSUNNY   73  64  73 NE9       30.12R
MOUNT POCONO   MOSUNNY   67  57  70 NE6       30.16R
HAZLETON       SUNNY     68  59  73 NW3       30.17S
WILKES BARRE   SUNNY     72  56  57 NE8       30.13S

$$
DEZALL-MDZ008-012-015-019-020-101500-
DELAWARE AND EASTERN MARYLAND

CITY           SKY/WX    TMP DP  RH WIND       PRES   REMARKS
WILMINGTON     PTSUNNY   78  65  63 NE9       30.09R
DOVER          CLOUDY    75  75 100 N2        30.05S
GEORGETOWN     CLOUDY    77  72  84 S10       30.07R
EASTON         CLOUDY    77  77 100 NW5       30.10R
PATUXENT       CLOUDY    76  70  82 SW5       30.05F
OCEAN CITY     CLOUDY    74  71  91 VRB6      30.08R FOG
WALLOPS ISLAND CLOUDY    77  74  90 SW9       30.08S
CAMBRIDGE      CLOUDY    79  70  73 S3        30.06R
SALISBURY      CLOUDY    79  73  82 S7        30.07R HAZE

$$
PAZ001-021-NYZ056-072-MDZ011-DCZ001-101500-
OTHER NEARBY LOCATIONS

CITY           SKY/WX    TMP DP  RH WIND       PRES   REMARKS
HARRISBURG     MOSUNNY   78  62  57 NE6       30.09S
STATE COLLEGE  MOSUNNY   68  61  77 NE7       30.15S
WILLIAMSPORT   SUNNY     71  60  68 CALM      30.12S
BINGHAMTON     SUNNY     65  54  67 N6        30.17R
NEW YORK CITY  PTSUNNY   74  63  68 VRB5      30.13R
BALTIMORE      PTSUNNY   78  69  73 NE6       30.06S
WASHINGTON DC  CLOUDY    79  69  71 NW3       30.07R

$$



USA.gov is the U.S. government's official web portal to all federal, state and local government web resources and services.